Tracking 18843 objects as of 20-November-2017
HD Live streaming from Space Station
objects crossing your sky now

FENGYUN 1C DEB

Track FENGYUN 1C DEB now!
10-day predictions


NORAD ID: 30397
Int'l Code: 1999-025ADL
Perigee: 814.6 km
Apogee: 1,053.5 km
Inclination: 98.4 °
Period: 103.6 minutes
Semi major axis: 7305 km
RCS: 0.041 m2 (small)
Launch date: May 10, 1999
Source: People's Republic of China (PRC)
Launch site: Taiyaun Space Center, China (TSC)

Note: This is SATELLITE DEBRIS
aabbcc
Your satellite tracking list
Your tracking list is empty




NASA's NSSDC Master Catalog

Two Line Element Set (TLE):
1 30397U 99025ADL 17324.03484064  .00000469  00000-0  36636-3 0  9999
2 30397  98.3792 337.6044 0163503 354.4257  57.4323 13.90494910548031
Source of the keplerian elements: AFSPC